Time,TemperatureF,DewpointF,PressureIn,WindDirection,WindDirectionDegrees,WindSpeedMPH,WindSpeedGustMPH,Humidity,HourlyPrecipIn,Conditions,Clouds,dailyrainin,SoftwareType,DateUTC
2013-04-23 00:02:00,71.1,56.8,29.74,SSE,159,0.0,6.0,61,0.00,,,0.00,meteohub,2013-04-23 05:02:00,
2013-04-23 00:07:00,70.9,56.8,29.74,SSE,159,0.0,6.0,61,0.00,,,0.00,meteohub,2013-04-23 05:07:00,
2013-04-23 00:12:00,70.7,57.0,29.74,SSE,159,0.0,6.0,62,0.00,,,0.00,meteohub,2013-04-23 05:12:00,
2013-04-23 00:17:00,70.5,56.8,29.74,South,169,0.0,6.0,62,0.00,,,0.00,meteohub,2013-04-23 05:17:00,
2013-04-23 00:22:00,70.3,56.7,29.73,South,177,0.0,4.0,62,0.00,,,0.00,meteohub,2013-04-23 05:22:00,
2013-04-23 00:27:00,70.3,56.7,29.73,South,177,0.0,4.0,62,0.00,,,0.00,meteohub,2013-04-23 05:27:00,
2013-04-23 00:32:00,70.2,57.0,29.73,SSW,207,0.0,4.0,63,0.00,,,0.00,meteohub,2013-04-23 05:32:00,
2013-04-23 00:37:00,70.3,56.7,29.72,SW,215,0.0,4.0,62,0.00,,,0.00,meteohub,2013-04-23 05:37:00,
2013-04-23 00:42:00,70.3,56.7,29.73,SSW,198,0.0,4.0,62,0.00,,,0.00,meteohub,2013-04-23 05:42:00,
2013-04-23 00:47:00,70.5,56.8,29.73,South,182,3.0,7.0,62,0.00,,,0.00,meteohub,2013-04-23 05:47:00,
2013-04-23 00:52:00,70.9,56.8,29.73,South,180,0.0,7.0,61,0.00,,,0.00,meteohub,2013-04-23 05:52:00,
2013-04-23 00:57:00,70.9,56.8,29.73,SSE,167,0.0,7.0,61,0.00,,,0.00,meteohub,2013-04-23 05:57:00,
2013-04-23 01:02:00,70.9,56.8,29.73,SSE,163,0.0,7.0,61,0.00,,,0.00,meteohub,2013-04-23 06:02:00,
2013-04-23 01:07:00,70.9,56.8,29.74,South,185,0.0,7.0,61,0.00,,,0.00,meteohub,2013-04-23 06:07:00,
2013-04-23 01:12:00,70.9,56.8,29.74,South,184,0.0,5.0,61,0.00,,,0.00,meteohub,2013-04-23 06:12:00,
2013-04-23 01:17:00,70.9,56.8,29.74,South,184,0.0,5.0,61,0.00,,,0.00,meteohub,2013-04-23 06:17:00,
2013-04-23 01:22:00,70.7,57.0,29.73,South,184,0.0,5.0,62,0.00,,,0.00,meteohub,2013-04-23 06:22:00,
2013-04-23 01:27:00,70.5,56.8,29.73,South,185,0.0,5.0,62,0.00,,,0.00,meteohub,2013-04-23 06:27:00,
2013-04-23 01:32:00,70.5,56.8,29.73,South,185,0.0,3.0,62,0.00,,,0.00,meteohub,2013-04-23 06:32:00,
2013-04-23 01:37:00,70.3,56.7,29.73,South,185,0.0,3.0,62,0.00,,,0.00,meteohub,2013-04-23 06:37:00,
2013-04-23 01:42:00,70.2,56.5,29.73,South,185,0.0,3.0,62,0.00,,,0.00,meteohub,2013-04-23 06:42:00,
2013-04-23 01:47:00,70.2,56.5,29.73,South,185,0.0,3.0,62,0.00,,,0.00,meteohub,2013-04-23 06:47:00,
2013-04-23 01:52:00,70.0,56.8,29.73,South,185,0.0,0.0,63,0.00,,,0.00,meteohub,2013-04-23 06:52:00,
2013-04-23 01:57:00,69.8,56.7,29.73,South,185,0.0,0.0,63,0.00,,,0.00,meteohub,2013-04-23 06:57:00,
2013-04-23 02:02:00,69.6,56.5,29.72,South,185,0.0,0.0,63,0.00,,,0.00,meteohub,2013-04-23 07:02:00,
2013-04-23 02:07:00,69.6,56.8,29.73,South,185,0.0,0.0,64,0.00,,,0.00,meteohub,2013-04-23 07:07:00,
2013-04-23 02:12:00,69.4,56.7,29.73,South,185,0.0,0.0,64,0.00,,,0.00,meteohub,2013-04-23 07:12:00,
2013-04-23 02:17:00,69.4,56.7,29.72,South,185,0.0,1.0,64,0.00,,,0.00,meteohub,2013-04-23 07:17:00,
2013-04-23 02:22:00,69.4,56.7,29.72,South,185,0.0,1.0,64,0.00,,,0.00,meteohub,2013-04-23 07:22:00,
2013-04-23 02:27:00,69.4,56.7,29.72,South,185,0.0,1.0,64,0.00,,,0.00,meteohub,2013-04-23 07:27:00,
2013-04-23 02:32:00,69.3,56.5,29.72,South,185,0.0,3.0,64,0.00,,,0.00,meteohub,2013-04-23 07:32:00,
2013-04-23 02:37:00,69.3,56.5,29.71,South,185,0.0,3.0,64,0.00,,,0.00,meteohub,2013-04-23 07:37:00,
2013-04-23 02:42:00,69.3,56.5,29.71,South,185,0.0,3.0,64,0.00,,,0.00,meteohub,2013-04-23 07:42:00,
2013-04-23 02:47:00,69.1,56.8,29.71,South,185,0.0,3.0,65,0.00,,,0.00,meteohub,2013-04-23 07:47:00,
2013-04-23 02:52:00,68.9,56.7,29.70,South,179,0.0,0.0,65,0.00,,,0.00,meteohub,2013-04-23 07:52:00,
2013-04-23 02:57:00,68.7,56.5,29.70,South,179,0.0,0.0,65,0.00,,,0.00,meteohub,2013-04-23 07:57:00,
2013-04-23 03:02:00,69.1,56.8,29.70,SSE,167,0.0,0.0,65,0.00,,,0.00,meteohub,2013-04-23 08:02:00,
2013-04-23 03:07:00,69.3,57.0,29.70,SSE,166,1.0,0.0,65,0.00,,,0.00,meteohub,2013-04-23 08:07:00,
2013-04-23 03:12:00,69.4,56.7,29.70,SE,142,0.0,8.0,64,0.00,,,0.00,meteohub,2013-04-23 08:12:00,
2013-04-23 03:17:00,69.4,56.7,29.70,SE,141,0.0,8.0,64,0.00,,,0.00,meteohub,2013-04-23 08:17:00,
2013-04-23 03:22:00,69.4,56.7,29.70,SE,141,0.0,8.0,64,0.00,,,0.00,meteohub,2013-04-23 08:22:00,
2013-04-23 03:27:00,69.1,56.5,29.70,SE,143,0.0,8.0,64,0.00,,,0.00,meteohub,2013-04-23 08:27:00,
2013-04-23 03:32:00,68.9,56.7,29.69,SE,146,0.0,0.0,65,0.00,,,0.00,meteohub,2013-04-23 08:32:00,
2013-04-23 03:37:00,68.5,56.7,29.69,SE,146,0.0,0.0,66,0.00,,,0.00,meteohub,2013-04-23 08:37:00,
2013-04-23 03:42:00,68.4,56.5,29.69,SSE,148,0.0,0.0,66,0.00,,,0.00,meteohub,2013-04-23 08:42:00,
2013-04-23 03:47:00,67.8,56.5,29.69,SSE,150,0.0,0.0,67,0.00,,,0.00,meteohub,2013-04-23 08:47:00,
2013-04-23 03:52:00,67.6,56.3,29.69,SSE,150,0.0,7.0,67,0.00,,,0.00,meteohub,2013-04-23 08:52:00,
2013-04-23 03:57:00,67.6,56.7,29.69,SSE,152,0.0,7.0,68,0.00,,,0.00,meteohub,2013-04-23 08:57:00,
2013-04-23 04:02:00,67.5,56.5,29.70,SSE,151,0.0,7.0,68,0.00,,,0.00,meteohub,2013-04-23 09:02:00,
2013-04-23 04:07:00,67.3,56.3,29.70,SSE,150,0.0,7.0,68,0.00,,,0.00,meteohub,2013-04-23 09:07:00,
2013-04-23 04:12:00,66.9,56.5,29.70,SSE,150,0.0,7.0,69,0.00,,,0.00,meteohub,2013-04-23 09:12:00,
2013-04-23 04:17:00,66.7,56.3,29.70,SSE,150,0.0,1.0,69,0.00,,,0.00,meteohub,2013-04-23 09:17:00,
2013-04-23 04:22:00,66.6,56.5,29.70,SSE,151,0.0,1.0,70,0.00,,,0.00,meteohub,2013-04-23 09:22:00,
2013-04-23 04:27:00,66.4,56.3,29.69,SSE,151,0.0,1.0,70,0.00,,,0.00,meteohub,2013-04-23 09:27:00,
2013-04-23 04:32:00,66.2,56.1,29.70,SSE,150,0.0,0.0,70,0.00,,,0.00,meteohub,2013-04-23 09:32:00,
2013-04-23 04:37:00,66.0,56.3,29.70,SSE,151,0.0,0.0,71,0.00,,,0.00,meteohub,2013-04-23 09:37:00,
2013-04-23 04:42:00,65.8,56.5,29.70,SSE,150,0.0,0.0,72,0.00,,,0.00,meteohub,2013-04-23 09:42:00,
2013-04-23 04:47:00,65.8,56.5,29.71,SSE,150,0.0,0.0,72,0.00,,,0.00,meteohub,2013-04-23 09:47:00,
2013-04-23 04:52:00,65.7,56.3,29.71,SSE,150,0.0,0.0,72,0.00,,,0.00,meteohub,2013-04-23 09:52:00,
2013-04-23 04:57:00,65.5,56.3,29.71,SE,145,0.0,0.0,72,0.00,,,0.00,meteohub,2013-04-23 09:57:00,
2013-04-23 05:02:00,65.1,56.3,29.70,SE,145,0.0,0.0,73,0.00,,,0.00,meteohub,2013-04-23 10:02:00,
2013-04-23 05:07:00,64.9,56.1,29.70,SE,145,0.0,0.0,73,0.00,,,0.00,meteohub,2013-04-23 10:07:00,
2013-04-23 05:12:00,64.8,56.3,29.70,SE,145,0.0,0.0,74,0.00,,,0.00,meteohub,2013-04-23 10:12:00,
2013-04-23 05:17:00,64.6,56.1,29.71,SE,145,0.0,0.0,74,0.00,,,0.00,meteohub,2013-04-23 10:17:00,
2013-04-23 05:22:00,64.6,56.1,29.75,NW,325,8.0,8.0,74,0.00,,,0.00,meteohub,2013-04-23 10:22:00,
2013-04-23 05:27:00,64.0,55.9,29.76,NNE,17,3.0,8.0,75,0.00,,,0.00,meteohub,2013-04-23 10:27:00,
2013-04-23 05:32:00,64.8,56.7,29.76,North,350,6.0,8.0,75,0.00,,,0.00,meteohub,2013-04-23 10:32:00,
2013-04-23 05:37:00,65.7,57.2,29.75,NNW,338,0.0,8.0,74,0.00,,,0.00,meteohub,2013-04-23 10:37:00,
2013-04-23 05:42:00,66.0,57.2,29.76,NNE,30,3.0,8.0,73,0.00,,,0.00,meteohub,2013-04-23 10:42:00,
2013-04-23 05:47:00,66.4,57.0,29.77,North,0,4.0,8.0,72,0.00,,,0.00,meteohub,2013-04-23 10:47:00,
2013-04-23 05:52:00,66.7,57.4,29.77,NNW,340,0.0,7.0,72,0.00,,,0.00,meteohub,2013-04-23 10:52:00,
2013-04-23 05:57:00,66.7,57.0,29.78,NNW,342,0.0,7.0,71,0.00,,,0.00,meteohub,2013-04-23 10:57:00,
2013-04-23 06:02:00,66.9,57.2,29.77,NNW,340,0.0,7.0,71,0.00,,,0.00,meteohub,2013-04-23 11:02:00,
2013-04-23 06:07:00,66.9,57.2,29.77,NNW,340,0.0,7.0,71,0.00,,,0.00,meteohub,2013-04-23 11:07:00,
2013-04-23 06:12:00,66.4,50.7,29.79,NNE,16,10.0,10.0,57,0.00,,,0.00,meteohub,2013-04-23 11:12:00,
2013-04-23 06:17:00,61.7,45.0,29.79,NNW,346,12.0,12.0,54,0.00,,,0.00,meteohub,2013-04-23 11:17:00,
2013-04-23 06:22:00,58.6,43.5,29.80,NW,318,6.0,22.0,57,0.00,,,0.00,meteohub,2013-04-23 11:22:00,
2013-04-23 06:27:00,56.8,42.6,29.80,NNW,327,6.0,22.0,59,0.00,,,0.00,meteohub,2013-04-23 11:27:00,
2013-04-23 06:32:00,55.6,41.9,29.81,NNW,345,15.0,22.0,60,0.00,,,0.00,meteohub,2013-04-23 11:32:00,
2013-04-23 06:37:00,54.1,41.4,29.81,North,355,14.0,22.0,62,0.00,,,0.00,meteohub,2013-04-23 11:37:00,
2013-04-23 06:42:00,53.2,40.6,29.83,ENE,59,6.0,22.0,62,0.00,,,0.00,meteohub,2013-04-23 11:42:00,
2013-04-23 06:47:00,52.3,40.5,29.83,North,0,3.0,22.0,64,0.00,,,0.00,meteohub,2013-04-23 11:47:00,
2013-04-23 06:52:00,52.0,40.1,29.83,NW,316,8.0,22.0,64,0.00,,,0.00,meteohub,2013-04-23 11:52:00,
2013-04-23 06:57:00,51.4,40.1,29.84,NNW,328,17.0,26.0,65,0.00,,,0.00,meteohub,2013-04-23 11:57:00,
2013-04-23 07:02:00,51.1,40.1,29.85,North,355,11.0,26.0,66,0.00,,,0.00,meteohub,2013-04-23 12:02:00,
2013-04-23 07:07:00,50.7,39.7,29.85,NNW,339,5.0,26.0,66,0.00,,,0.00,meteohub,2013-04-23 12:07:00,
2013-04-23 07:12:00,50.5,39.2,29.86,NNW,344,10.0,26.0,65,0.00,,,0.00,meteohub,2013-04-23 12:12:00,
2013-04-23 07:17:00,50.2,39.2,29.86,WNW,294,5.0,26.0,66,0.00,,,0.00,meteohub,2013-04-23 12:17:00,
2013-04-23 07:22:00,49.8,38.8,29.87,North,355,4.0,26.0,66,0.00,,,0.00,meteohub,2013-04-23 12:22:00,
2013-04-23 07:27:00,49.6,38.7,29.89,NW,323,14.0,26.0,66,0.00,,,0.00,meteohub,2013-04-23 12:27:00,
2013-04-23 07:32:00,49.3,38.8,29.89,NNW,335,16.0,18.0,67,0.00,,,0.00,meteohub,2013-04-23 12:32:00,
2013-04-23 07:37:00,48.7,38.3,29.90,NW,324,9.0,18.0,67,0.00,,,0.00,meteohub,2013-04-23 12:37:00,
2013-04-23 07:42:00,48.7,38.7,29.90,North,351,13.0,18.0,68,0.00,,,0.00,meteohub,2013-04-23 12:42:00,
2013-04-23 07:47:00,48.6,38.5,29.90,NNW,345,8.0,18.0,68,0.00,,,0.00,meteohub,2013-04-23 12:47:00,
2013-04-23 07:52:00,48.2,38.5,29.91,NNW,336,13.0,18.0,69,0.00,,,0.00,meteohub,2013-04-23 12:52:00,
2013-04-23 07:57:00,47.7,38.3,29.91,North,0,10.0,23.0,70,0.00,,,0.00,meteohub,2013-04-23 12:57:00,
2013-04-23 08:02:00,47.3,38.3,29.91,NNW,338,11.0,23.0,71,0.00,,,0.00,meteohub,2013-04-23 13:02:00,
2013-04-23 08:07:00,47.3,38.3,29.91,NNW,341,8.0,23.0,71,0.00,,,0.00,meteohub,2013-04-23 13:07:00,
2013-04-23 08:12:00,47.1,38.1,29.92,NNW,337,13.0,23.0,71,0.00,,,0.00,meteohub,2013-04-23 13:12:00,
2013-04-23 08:17:00,47.1,38.1,29.93,NNW,340,8.0,23.0,71,0.00,,,0.00,meteohub,2013-04-23 13:17:00,
2013-04-23 08:22:00,47.1,38.1,29.93,NNW,344,7.0,20.0,71,0.00,,,0.00,meteohub,2013-04-23 13:22:00,
2013-04-23 08:27:00,47.3,37.9,29.94,North,10,12.0,20.0,70,0.00,,,0.00,meteohub,2013-04-23 13:27:00,
2013-04-23 08:32:00,47.1,37.8,29.94,NNW,329,14.0,20.0,70,0.00,,,0.00,meteohub,2013-04-23 13:32:00,
2013-04-23 08:38:00,47.1,38.1,29.95,NNW,333,8.0,20.0,71,0.00,,,0.00,meteohub,2013-04-23 13:38:00,
2013-04-23 08:43:00,46.9,38.3,29.95,WNW,297,12.0,20.0,72,0.00,,,0.00,meteohub,2013-04-23 13:43:00,
2013-04-23 08:48:00,46.9,38.1,29.96,NNW,348,9.0,20.0,71,0.00,,,0.00,meteohub,2013-04-23 13:48:00,
2013-04-23 08:53:00,46.9,38.1,29.95,NW,317,18.0,20.0,71,0.00,,,0.00,meteohub,2013-04-23 13:53:00,
2013-04-23 08:58:00,46.8,37.6,29.95,NNW,329,12.0,20.0,70,0.00,,,0.00,meteohub,2013-04-23 13:58:00,
2013-04-23 09:03:00,46.8,37.6,29.96,North,349,14.0,20.0,70,0.00,,,0.00,meteohub,2013-04-23 14:03:00,
2013-04-23 09:08:00,46.6,37.4,29.96,NNE,13,14.0,20.0,70,0.00,,,0.00,meteohub,2013-04-23 14:08:00,
2013-04-23 09:13:00,46.2,37.4,29.96,NNE,28,2.0,20.0,71,0.00,,,0.00,meteohub,2013-04-23 14:13:00,
2013-04-23 09:18:00,46.0,37.2,29.96,NNW,344,14.0,24.0,71,0.00,,,0.00,meteohub,2013-04-23 14:18:00,
2013-04-23 09:23:00,45.7,37.2,29.97,NW,306,11.0,24.0,72,0.00,,,0.00,meteohub,2013-04-23 14:23:00,
2013-04-23 09:28:00,45.3,36.9,29.97,NNW,329,11.0,24.0,72,0.00,,,0.00,meteohub,2013-04-23 14:28:00,
2013-04-23 09:33:00,45.3,36.9,29.97,WSW,257,6.0,24.0,72,0.00,,,0.00,meteohub,2013-04-23 14:33:00,
2013-04-23 09:38:00,45.3,36.9,29.98,NNW,337,17.0,24.0,72,0.00,,,0.00,meteohub,2013-04-23 14:38:00,
2013-04-23 09:43:00,45.5,37.0,29.98,WNW,296,9.0,23.0,72,0.00,,,0.00,meteohub,2013-04-23 14:43:00,
2013-04-23 09:48:00,45.7,37.2,29.98,NNE,17,10.0,23.0,72,0.00,,,0.00,meteohub,2013-04-23 14:48:00,
2013-04-23 09:53:00,45.7,36.9,29.99,NNW,341,1.0,23.0,71,0.00,,,0.00,meteohub,2013-04-23 14:53:00,
2013-04-23 09:58:00,45.7,36.9,29.99,NE,43,6.0,23.0,71,0.00,,,0.00,meteohub,2013-04-23 14:58:00,
2013-04-23 10:03:00,45.5,36.7,29.99,North,0,14.0,23.0,71,0.00,,,0.00,meteohub,2013-04-23 15:03:00,
2013-04-23 10:08:00,45.5,36.7,30.00,NNW,344,16.0,23.0,71,0.00,,,0.00,meteohub,2013-04-23 15:08:00,
2013-04-23 10:13:00,45.1,36.3,29.99,North,355,15.0,18.0,71,0.00,,,0.00,meteohub,2013-04-23 15:13:00,
2013-04-23 10:18:00,45.0,36.5,30.00,NNE,13,6.0,18.0,72,0.00,,,0.00,meteohub,2013-04-23 15:18:00,
2013-04-23 10:23:00,44.8,36.3,30.01,NW,309,9.0,18.0,72,0.00,,,0.00,meteohub,2013-04-23 15:23:00,
2013-04-23 10:28:00,44.6,37.6,30.01,NNW,337,11.0,18.0,76,0.00,,,0.00,meteohub,2013-04-23 15:28:00,
2013-04-23 10:33:00,44.4,36.0,30.01,NNW,337,16.0,18.0,72,0.00,,,0.00,meteohub,2013-04-23 15:33:00,
2013-04-23 10:38:00,44.2,36.1,30.01,NNE,13,12.0,21.0,73,0.00,,,0.00,meteohub,2013-04-23 15:38:00,
2013-04-23 10:43:00,44.2,36.1,30.01,NE,53,5.0,21.0,73,0.00,,,0.00,meteohub,2013-04-23 15:43:00,
2013-04-23 10:48:00,44.4,36.0,30.01,NNW,332,10.0,21.0,72,0.00,,,0.00,meteohub,2013-04-23 15:48:00,
2013-04-23 10:53:00,44.4,36.0,30.02,NNW,331,13.0,21.0,72,0.00,,,0.00,meteohub,2013-04-23 15:53:00,
2013-04-23 10:58:00,44.4,36.0,30.02,NNW,336,15.0,21.0,72,0.00,,,0.00,meteohub,2013-04-23 15:58:00,
2013-04-23 11:03:00,44.4,36.0,30.02,NNW,340,15.0,21.0,72,0.00,,,0.00,meteohub,2013-04-23 16:03:00,
2013-04-23 11:08:00,44.4,35.6,30.02,NNW,342,9.0,19.0,71,0.00,,,0.00,meteohub,2013-04-23 16:08:00,
2013-04-23 11:13:00,44.4,35.6,30.02,NNW,337,13.0,19.0,71,0.00,,,0.00,meteohub,2013-04-23 16:13:00,
2013-04-23 11:18:00,44.8,36.0,30.02,East,82,1.0,19.0,71,0.00,,,0.00,meteohub,2013-04-23 16:18:00,
2013-04-23 11:23:00,45.0,35.8,30.02,NW,314,2.0,19.0,70,0.00,,,0.00,meteohub,2013-04-23 16:23:00,
2013-04-23 11:28:00,45.0,35.4,30.02,NNW,327,13.0,19.0,69,0.00,,,0.00,meteohub,2013-04-23 16:28:00,
2013-04-23 11:33:00,45.1,35.6,30.03,NNW,335,9.0,19.0,69,0.00,,,0.00,meteohub,2013-04-23 16:33:00,
2013-04-23 11:38:00,45.1,35.6,30.03,NNW,338,2.0,17.0,69,0.00,,,0.00,meteohub,2013-04-23 16:38:00,
2013-04-23 11:44:00,45.0,35.4,30.04,North,355,15.0,17.0,69,0.00,,,0.00,meteohub,2013-04-23 16:44:00,
2013-04-23 11:49:00,45.1,35.6,30.04,NNW,345,10.0,17.0,69,0.00,,,0.00,meteohub,2013-04-23 16:49:00,
2013-04-23 11:54:00,45.1,35.2,30.03,NNW,343,16.0,17.0,68,0.00,,,0.00,meteohub,2013-04-23 16:54:00,
2013-04-23 11:59:00,45.1,35.2,30.03,NNW,339,7.0,17.0,68,0.00,,,0.00,meteohub,2013-04-23 16:59:00,
2013-04-23 12:04:00,45.1,35.2,30.03,NNW,340,16.0,17.0,68,0.00,,,0.00,meteohub,2013-04-23 17:04:00,
2013-04-23 12:09:00,45.0,35.4,30.03,NNW,336,2.0,21.0,69,0.00,,,0.00,meteohub,2013-04-23 17:09:00,
2013-04-23 12:14:00,45.3,35.4,30.03,NE,45,0.0,21.0,68,0.00,,,0.00,meteohub,2013-04-23 17:14:00,
2013-04-23 12:19:00,45.7,35.8,30.03,NNE,22,2.0,21.0,68,0.00,,,0.00,meteohub,2013-04-23 17:19:00,
2013-04-23 12:24:00,46.2,35.4,30.03,North,0,11.0,21.0,66,0.00,,,0.00,meteohub,2013-04-23 17:24:00,
2013-04-23 12:29:00,46.0,35.2,30.03,NW,314,0.0,21.0,66,0.00,,,0.00,meteohub,2013-04-23 17:29:00,
2013-04-23 12:34:00,45.9,35.6,30.03,North,355,7.0,21.0,67,0.00,,,0.00,meteohub,2013-04-23 17:34:00,
2013-04-23 12:39:00,45.7,35.4,30.03,NNW,340,4.0,21.0,67,0.00,,,0.00,meteohub,2013-04-23 17:39:00,
2013-04-23 12:44:00,45.9,35.1,30.03,NNW,328,5.0,20.0,66,0.00,,,0.00,meteohub,2013-04-23 17:44:00,
2013-04-23 12:49:00,46.0,35.8,30.03,North,355,16.0,20.0,67,0.00,,,0.00,meteohub,2013-04-23 17:49:00,
2013-04-23 12:54:00,46.0,35.2,30.03,NNE,29,2.0,20.0,66,0.00,,,0.00,meteohub,2013-04-23 17:54:00,
2013-04-23 12:59:00,45.9,35.6,30.02,North,0,6.0,20.0,67,0.00,,,0.00,meteohub,2013-04-23 17:59:00,
2013-04-23 13:04:00,46.2,36.0,30.03,NW,312,2.0,20.0,67,0.00,,,0.00,meteohub,2013-04-23 18:04:00,
2013-04-23 13:09:00,46.4,35.6,30.03,NNW,347,8.0,20.0,66,0.00,,,0.00,meteohub,2013-04-23 18:09:00,
2013-04-23 13:14:00,46.2,35.4,30.03,North,355,10.0,20.0,66,0.00,,,0.00,meteohub,2013-04-23 18:14:00,
2013-04-23 13:19:00,46.0,35.2,30.03,North,350,8.0,17.0,66,0.00,,,0.00,meteohub,2013-04-23 18:19:00,
2013-04-23 13:24:00,46.2,35.4,30.03,North,5,15.0,17.0,66,0.00,,,0.00,meteohub,2013-04-23 18:24:00,
2013-04-23 13:29:00,46.0,34.9,30.03,NNE,13,9.0,17.0,65,0.00,,,0.00,meteohub,2013-04-23 18:29:00,
2013-04-23 13:34:00,46.2,35.1,30.04,NW,323,11.0,17.0,65,0.00,,,0.00,meteohub,2013-04-23 18:34:00,
2013-04-23 13:39:00,46.0,34.9,30.03,North,0,13.0,20.0,65,0.00,,,0.00,meteohub,2013-04-23 18:39:00,
2013-04-23 13:44:00,46.2,35.1,30.03,North,355,7.0,20.0,65,0.00,,,0.00,meteohub,2013-04-23 18:44:00,
2013-04-23 13:49:00,46.2,35.1,30.04,NW,307,2.0,20.0,65,0.00,,,0.00,meteohub,2013-04-23 18:49:00,
2013-04-23 13:54:00,46.4,35.2,30.03,NNE,13,5.0,18.0,65,0.00,,,0.00,meteohub,2013-04-23 18:54:00,
2013-04-23 13:59:00,46.8,35.2,30.02,NNW,344,9.0,18.0,64,0.00,,,0.00,meteohub,2013-04-23 18:59:00,
2013-04-23 14:04:00,46.9,35.1,30.03,NW,318,9.0,18.0,63,0.00,,,0.00,meteohub,2013-04-23 19:04:00,
2013-04-23 14:09:00,46.8,34.9,30.03,NNW,340,12.0,18.0,63,0.00,,,0.00,meteohub,2013-04-23 19:09:00,
2013-04-23 14:14:00,46.8,35.2,30.02,NNW,336,13.0,17.0,64,0.00,,,0.00,meteohub,2013-04-23 19:14:00,
2013-04-23 14:20:00,46.6,35.1,30.03,NW,314,7.0,17.0,64,0.00,,,0.00,meteohub,2013-04-23 19:20:00,
2013-04-23 14:25:00,46.8,34.9,30.03,NNW,330,12.0,17.0,63,0.00,,,0.00,meteohub,2013-04-23 19:25:00,
2013-04-23 14:30:00,46.6,34.7,30.03,NNW,344,16.0,17.0,63,0.00,,,0.00,meteohub,2013-04-23 19:30:00,
2013-04-23 14:35:00,46.6,34.7,30.03,NNW,344,10.0,16.0,63,0.00,,,0.00,meteohub,2013-04-23 19:35:00,
2013-04-23 14:40:00,46.9,35.1,30.03,North,351,0.0,16.0,63,0.00,,,0.00,meteohub,2013-04-23 19:40:00,
2013-04-23 14:45:00,47.1,34.7,30.02,North,355,9.0,16.0,62,0.00,,,0.00,meteohub,2013-04-23 19:45:00,
2013-04-23 14:50:00,47.3,34.5,30.03,NNW,338,5.0,15.0,61,0.00,,,0.00,meteohub,2013-04-23 19:50:00,
2013-04-23 14:55:00,46.9,34.2,30.02,NNW,337,10.0,15.0,61,0.00,,,0.00,meteohub,2013-04-23 19:55:00,
2013-04-23 15:00:00,47.1,34.7,30.02,NNW,343,9.0,15.0,62,0.00,,,0.00,meteohub,2013-04-23 20:00:00,
2013-04-23 15:05:00,47.1,34.3,30.02,NW,319,7.0,17.0,61,0.00,,,0.00,meteohub,2013-04-23 20:05:00,
2013-04-23 15:10:00,47.3,34.5,30.02,WNW,291,4.0,17.0,61,0.00,,,0.00,meteohub,2013-04-23 20:10:00,
2013-04-23 15:15:00,47.5,34.3,30.02,North,350,1.0,17.0,60,0.00,,,0.00,meteohub,2013-04-23 20:15:00,
2013-04-23 15:20:00,47.7,34.5,30.02,NNW,343,8.0,17.0,60,0.00,,,0.00,meteohub,2013-04-23 20:20:00,
2013-04-23 15:25:00,48.0,34.9,30.02,NNW,346,13.0,14.0,60,0.00,,,0.00,meteohub,2013-04-23 20:25:00,
2013-04-23 15:30:00,47.8,34.7,30.02,NW,308,7.0,14.0,60,0.00,,,0.00,meteohub,2013-04-23 20:30:00,
2013-04-23 15:35:00,47.8,34.7,30.03,WNW,293,2.0,14.0,60,0.00,,,0.00,meteohub,2013-04-23 20:35:00,
2013-04-23 15:40:00,47.8,34.7,30.02,North,5,8.0,17.0,60,0.00,,,0.00,meteohub,2013-04-23 20:40:00,
2013-04-23 15:45:00,47.8,34.7,30.02,NW,309,8.0,17.0,60,0.00,,,0.00,meteohub,2013-04-23 20:45:00,
2013-04-23 15:50:00,47.8,34.7,30.02,NNE,25,2.0,17.0,60,0.00,,,0.00,meteohub,2013-04-23 20:50:00,
2013-04-23 15:55:00,48.2,34.9,30.02,NNW,346,2.0,17.0,60,0.00,,,0.00,meteohub,2013-04-23 20:55:00,
2013-04-23 16:00:00,48.6,34.9,30.01,NW,304,0.0,15.0,59,0.00,,,0.00,meteohub,2013-04-23 21:00:00,
2013-04-23 16:05:00,48.6,34.5,30.02,North,355,7.0,15.0,58,0.00,,,0.00,meteohub,2013-04-23 21:05:00,
2013-04-23 16:10:00,48.7,34.7,30.01,NNE,13,6.0,15.0,58,0.00,,,0.00,meteohub,2013-04-23 21:10:00,
2013-04-23 16:15:00,48.9,34.9,30.01,NNW,340,7.0,15.0,58,0.00,,,0.00,meteohub,2013-04-23 21:15:00,
2013-04-23 16:20:00,49.3,35.1,30.01,East,85,0.0,14.0,58,0.00,,,0.00,meteohub,2013-04-23 21:20:00,
2013-04-23 16:25:00,49.3,35.1,30.01,NNW,333,6.0,14.0,58,0.00,,,0.00,meteohub,2013-04-23 21:25:00,
2013-04-23 16:30:00,49.5,34.9,30.01,NNW,338,8.0,14.0,57,0.00,,,0.00,meteohub,2013-04-23 21:30:00,
2013-04-23 16:35:00,49.6,34.5,30.01,NNE,20,4.0,14.0,56,0.00,,,0.00,meteohub,2013-04-23 21:35:00,
2013-04-23 16:40:00,49.8,35.2,30.00,NNW,345,6.0,14.0,57,0.00,,,0.00,meteohub,2013-04-23 21:40:00,
2013-04-23 16:45:00,49.8,35.2,30.00,North,355,7.0,14.0,57,0.00,,,0.00,meteohub,2013-04-23 21:45:00,
2013-04-23 16:50:00,49.8,35.2,30.00,NW,325,0.0,14.0,57,0.00,,,0.00,meteohub,2013-04-23 21:50:00,
2013-04-23 16:55:00,50.0,34.9,30.00,North,350,0.0,14.0,56,0.00,,,0.00,meteohub,2013-04-23 21:55:00,
2013-04-23 17:00:00,50.2,35.1,30.00,NNW,332,9.0,14.0,56,0.00,,,0.00,meteohub,2013-04-23 22:00:00,
2013-04-23 17:05:00,50.2,35.1,30.00,NNW,342,9.0,14.0,56,0.00,,,0.00,meteohub,2013-04-23 22:05:00,
2013-04-23 17:10:00,50.2,35.1,30.00,NE,37,0.0,14.0,56,0.00,,,0.00,meteohub,2013-04-23 22:10:00,
2013-04-23 17:15:00,50.5,35.4,30.00,NNE,28,4.0,15.0,56,0.00,,,0.00,meteohub,2013-04-23 22:15:00,
2013-04-23 17:20:00,50.9,35.2,30.00,North,5,10.0,15.0,55,0.00,,,0.00,meteohub,2013-04-23 22:20:00,
2013-04-23 17:25:00,51.1,35.4,30.00,NNE,12,9.0,15.0,55,0.00,,,0.00,meteohub,2013-04-23 22:25:00,
2013-04-23 17:30:00,51.1,35.4,30.00,NNW,348,1.0,17.0,55,0.00,,,0.00,meteohub,2013-04-23 22:30:00,
2013-04-23 17:35:00,51.1,35.4,30.00,North,355,14.0,17.0,55,0.00,,,0.00,meteohub,2013-04-23 22:35:00,
2013-04-23 17:40:00,51.3,35.2,30.00,NNE,20,3.0,17.0,54,0.00,,,0.00,meteohub,2013-04-23 22:40:00,
2013-04-23 17:45:00,51.3,35.2,30.00,North,9,7.0,17.0,54,0.00,,,0.00,meteohub,2013-04-23 22:45:00,
2013-04-23 17:50:00,51.4,35.4,30.00,NW,319,4.0,17.0,54,0.00,,,0.00,meteohub,2013-04-23 22:50:00,
2013-04-23 17:55:00,51.4,35.4,30.00,NNW,330,0.0,17.0,54,0.00,,,0.00,meteohub,2013-04-23 22:55:00,
2013-04-23 18:00:00,51.6,35.1,30.00,WNW,296,2.0,17.0,53,0.00,,,0.00,meteohub,2013-04-23 23:00:00,
2013-04-23 18:05:00,51.6,35.1,30.00,NW,322,0.0,17.0,53,0.00,,,0.00,meteohub,2013-04-23 23:05:00,
2013-04-23 18:10:00,51.6,35.1,30.00,ENE,71,0.0,17.0,53,0.00,,,0.00,meteohub,2013-04-23 23:10:00,
2013-04-23 18:15:00,51.4,35.4,30.00,North,5,5.0,13.0,54,0.00,,,0.00,meteohub,2013-04-23 23:15:00,
2013-04-23 18:20:00,51.4,35.4,30.00,NW,323,4.0,13.0,54,0.00,,,0.00,meteohub,2013-04-23 23:20:00,
2013-04-23 18:25:00,51.3,35.2,30.01,NW,326,7.0,13.0,54,0.00,,,0.00,meteohub,2013-04-23 23:25:00,
2013-04-23 18:30:00,51.3,35.2,30.00,North,0,2.0,13.0,54,0.00,,,0.00,meteohub,2013-04-23 23:30:00,
2013-04-23 18:36:00,51.1,35.1,30.00,NNW,340,0.0,13.0,54,0.00,,,0.00,meteohub,2013-04-23 23:36:00,
2013-04-23 18:41:00,51.1,35.1,30.01,NNW,336,10.0,16.0,54,0.00,,,0.00,meteohub,2013-04-23 23:41:00,
2013-04-23 18:46:00,50.9,34.9,30.01,WNW,298,7.0,16.0,54,0.00,,,0.00,meteohub,2013-04-23 23:46:00,
2013-04-23 18:51:00,50.9,34.9,30.01,NNW,330,1.0,16.0,54,0.00,,,0.00,meteohub,2013-04-23 23:51:00,
2013-04-23 18:56:00,50.9,34.9,30.02,NNE,20,4.0,16.0,54,0.00,,,0.00,meteohub,2013-04-23 23:56:00,
2013-04-23 19:01:00,50.7,35.1,30.01,WNW,292,4.0,16.0,55,0.00,,,0.00,meteohub,2013-04-24 00:01:00,
2013-04-23 19:06:00,50.7,34.7,30.01,North,0,5.0,16.0,54,0.00,,,0.00,meteohub,2013-04-24 00:06:00,
2013-04-23 19:11:00,50.7,34.7,30.02,NNE,19,2.0,13.0,54,0.00,,,0.00,meteohub,2013-04-24 00:11:00,
2013-04-23 19:16:00,50.7,34.7,30.02,NW,309,1.0,13.0,54,0.00,,,0.00,meteohub,2013-04-24 00:16:00,
2013-04-23 19:21:00,50.5,34.5,30.02,NNE,17,2.0,13.0,54,0.00,,,0.00,meteohub,2013-04-24 00:21:00,
2013-04-23 19:26:00,50.4,34.3,30.02,NNE,13,4.0,13.0,54,0.00,,,0.00,meteohub,2013-04-24 00:26:00,
2013-04-23 19:31:00,50.4,34.9,30.03,NNE,27,4.0,15.0,55,0.00,,,0.00,meteohub,2013-04-24 00:31:00,
2013-04-23 19:36:00,50.4,34.9,30.03,NNW,344,0.0,15.0,55,0.00,,,0.00,meteohub,2013-04-24 00:36:00,
2013-04-23 19:41:00,50.4,34.9,30.03,ENE,75,0.0,15.0,55,0.00,,,0.00,meteohub,2013-04-24 00:41:00,
2013-04-23 19:46:00,50.2,34.7,30.04,NNW,345,7.0,15.0,55,0.00,,,0.00,meteohub,2013-04-24 00:46:00,
2013-04-23 19:51:00,50.2,34.7,30.04,NNW,331,13.0,14.0,55,0.00,,,0.00,meteohub,2013-04-24 00:51:00,
2013-04-23 19:56:00,49.8,34.3,30.04,NE,39,0.0,14.0,55,0.00,,,0.00,meteohub,2013-04-24 00:56:00,
2013-04-23 20:01:00,49.8,34.3,30.04,North,5,0.0,14.0,55,0.00,,,0.00,meteohub,2013-04-24 01:01:00,
2013-04-23 20:06:00,49.8,34.3,30.05,North,355,0.0,14.0,55,0.00,,,0.00,meteohub,2013-04-24 01:06:00,
2013-04-23 20:11:00,49.8,34.3,30.05,North,0,8.0,14.0,55,0.00,,,0.00,meteohub,2013-04-24 01:11:00,
2013-04-23 20:16:00,49.8,34.3,30.06,NE,44,3.0,14.0,55,0.00,,,0.00,meteohub,2013-04-24 01:16:00,
2013-04-23 20:21:00,49.8,34.3,30.06,NNE,15,0.0,14.0,55,0.00,,,0.00,meteohub,2013-04-24 01:21:00,
2013-04-23 20:26:00,49.6,34.2,30.06,NNW,338,2.0,14.0,55,0.00,,,0.00,meteohub,2013-04-24 01:26:00,
2013-04-23 20:31:00,49.6,34.2,30.07,NNE,12,12.0,14.0,55,0.00,,,0.00,meteohub,2013-04-24 01:31:00,
2013-04-23 20:36:00,49.5,34.0,30.07,ENE,57,5.0,14.0,55,0.00,,,0.00,meteohub,2013-04-24 01:36:00,
2013-04-23 20:41:00,49.3,33.8,30.07,North,0,10.0,14.0,55,0.00,,,0.00,meteohub,2013-04-24 01:41:00,
2013-04-23 20:46:00,49.3,33.8,30.08,NNW,345,0.0,14.0,55,0.00,,,0.00,meteohub,2013-04-24 01:46:00,
2013-04-23 20:51:00,48.9,33.4,30.09,North,355,7.0,17.0,55,0.00,,,0.00,meteohub,2013-04-24 01:51:00,
2013-04-23 20:56:00,48.7,33.8,30.09,NNE,24,13.0,17.0,56,0.00,,,0.00,meteohub,2013-04-24 01:56:00,
2013-04-23 21:01:00,48.7,33.8,30.09,NE,34,11.0,17.0,56,0.00,,,0.00,meteohub,2013-04-24 02:01:00,
2013-04-23 21:06:00,48.6,33.6,30.11,North,0,10.0,17.0,56,0.00,,,0.00,meteohub,2013-04-24 02:06:00,
2013-04-23 21:12:00,48.4,33.4,30.11,NNW,336,1.0,17.0,56,0.00,,,0.00,meteohub,2013-04-24 02:12:00,
2013-04-23 21:17:00,48.2,33.3,30.12,North,351,10.0,19.0,56,0.00,,,0.00,meteohub,2013-04-24 02:17:00,
2013-04-23 21:22:00,48.0,33.1,30.12,NNE,16,12.0,19.0,56,0.00,,,0.00,meteohub,2013-04-24 02:22:00,
2013-04-23 21:27:00,47.8,33.3,30.12,NW,325,1.0,19.0,57,0.00,,,0.00,meteohub,2013-04-24 02:27:00,
2013-04-23 21:32:00,47.7,33.3,30.12,NNW,335,6.0,19.0,57,0.00,,,0.00,meteohub,2013-04-24 02:32:00,
2013-04-23 21:37:00,47.5,33.1,30.13,North,355,7.0,21.0,57,0.00,,,0.00,meteohub,2013-04-24 02:37:00,
2013-04-23 21:42:00,47.3,32.9,30.14,NNE,26,11.0,18.0,57,0.00,,,0.00,meteohub,2013-04-24 02:42:00,
2013-04-23 21:50:00,47.1,32.7,30.14,ENE,70,10.0,18.0,57,0.00,,,0.00,meteohub,2013-04-24 02:50:00,
2013-04-23 21:55:00,47.1,32.7,30.14,NNW,338,10.0,18.0,57,0.00,,,0.00,meteohub,2013-04-24 02:55:00,
2013-04-23 22:00:00,46.9,32.5,30.15,NW,309,14.0,18.0,57,0.00,,,0.00,meteohub,2013-04-24 03:00:00,
2013-04-23 22:06:00,46.8,32.7,30.15,NW,324,1.0,19.0,58,0.00,,,0.00,meteohub,2013-04-24 03:06:00,
2013-04-23 22:12:00,46.6,32.5,30.16,NNW,336,7.0,19.0,58,0.00,,,0.00,meteohub,2013-04-24 03:12:00,
2013-04-23 22:17:00,46.4,32.4,30.17,NNW,346,11.0,20.0,58,0.00,,,0.00,meteohub,2013-04-24 03:17:00,
2013-04-23 22:22:00,46.2,32.2,30.17,NNE,17,6.0,20.0,58,0.00,,,0.00,meteohub,2013-04-24 03:22:00,
2013-04-23 22:27:00,46.2,32.2,30.17,North,355,10.0,20.0,58,0.00,,,0.00,meteohub,2013-04-24 03:27:00,
2013-04-23 22:32:00,46.0,32.0,30.18,North,355,12.0,20.0,58,0.00,,,0.00,meteohub,2013-04-24 03:32:00,
2013-04-23 22:37:00,45.9,32.4,30.18,NNW,338,16.0,20.0,59,0.00,,,0.00,meteohub,2013-04-24 03:37:00,
2013-04-23 22:42:00,45.7,32.2,30.18,NNW,346,12.0,20.0,59,0.00,,,0.00,meteohub,2013-04-24 03:42:00,
2013-04-23 22:47:00,45.3,31.8,30.18,NNW,336,16.0,20.0,59,0.00,,,0.00,meteohub,2013-04-24 03:47:00,
2013-04-23 22:52:00,45.1,32.0,30.19,NNW,334,9.0,20.0,60,0.00,,,0.00,meteohub,2013-04-24 03:52:00,
2013-04-23 22:57:00,45.0,32.4,30.19,NE,36,3.0,20.0,61,0.00,,,0.00,meteohub,2013-04-24 03:57:00,
2013-04-23 23:01:00,45.0,32.4,30.19,NNW,348,18.0,23.0,61,0.00,,,0.00,meteohub,2013-04-24 04:01:00,
2013-04-23 23:02:00,44.8,32.2,30.19,North,11,12.0,23.0,61,0.00,,,0.00,meteohub,2013-04-24 04:02:00,
2013-04-23 23:07:00,44.4,32.2,30.19,North,0,14.0,23.0,62,0.00,,,0.00,meteohub,2013-04-24 04:07:00,
2013-04-23 23:12:00,44.2,32.0,30.20,NNW,346,16.0,23.0,62,0.00,,,0.00,meteohub,2013-04-24 04:12:00,
2013-04-23 23:17:00,43.9,31.6,30.20,North,5,9.0,24.0,62,0.00,,,0.00,meteohub,2013-04-24 04:17:00,
2013-04-23 23:22:00,43.7,32.0,30.21,NE,36,5.0,24.0,63,0.00,,,0.00,meteohub,2013-04-24 04:22:00,
2013-04-23 23:27:00,43.7,32.0,30.21,NNW,330,0.0,24.0,63,0.00,,,0.00,meteohub,2013-04-24 04:27:00,
2013-04-23 23:32:00,43.7,32.0,30.21,NNW,344,15.0,24.0,63,0.00,,,0.00,meteohub,2013-04-24 04:32:00,
2013-04-23 23:37:00,43.5,31.8,30.22,NW,326,13.0,20.0,63,0.00,,,0.00,meteohub,2013-04-24 04:37:00,
2013-04-23 23:42:00,43.3,31.6,30.22,North,355,6.0,20.0,63,0.00,,,0.00,meteohub,2013-04-24 04:42:00,
2013-04-23 23:47:00,43.3,31.6,30.22,WNW,302,5.0,20.0,63,0.00,,,0.00,meteohub,2013-04-24 04:47:00,
2013-04-23 23:52:00,43.2,31.8,30.22,NNW,327,9.0,20.0,64,0.00,,,0.00,meteohub,2013-04-24 04:52:00,
2013-04-23 23:57:00,43.0,31.6,30.23,NNW,339,11.0,20.0,64,0.00,,,0.00,meteohub,2013-04-24 04:57:00,